Theta_e
348 348 349 350 347 350 351 355 354 354 354 351 350 349 349 350 350 348 344 344 347 349 350 353 354 355 355 354 354 354 352 353 352 352 348 345 345 346 349 348 347 347 347
351 351 347 347 347 348 352 352 353 352 353 351 350 349 349 350 351 347 341 345 350 351 351 352 354 354 355 354 354 353 352 352 346 346 352 353 351 350 351 345 346 349 349
351 352 352 349 350 349 349 352 352 353 352 352 350 351 349 351 350 338 341 348 352 353 353 353 353 353 353 354 354 353 352 351 335 350 348 344 349 350 350 343 348 348 348
351 351 353 351 353 350 346 349 352 353 353 353 352 350 349 349 348 341 348 350 352 353 354 354 353 351 353 353 354 349 349 333 340 342 348 340 340 346 344 346 344 342 342
350 351 355 352 353 348 345 345 349 353 351 353 353 350 348 348 349 347 350 353 354 354 353 353 353 352 352 353 349 349 345 345 345 348 343 341 340 340 347 348 345 347 348
349 350 354 352 353 347 345 344 345 349 351 350 353 350 352 352 350 352 352 354 354 353 353 354 353 353 352 349 347 347 341 346 349 346 345 348 343 339 350 350 348 343 334
350 354 352 353 352 348 345 345 344 346 351 350 349 353 350 352 352 353 353 354 353 353 351 352 353 353 352 346 347 341 338 345 349 345 345 346 350 347 351 347 348 341 339
350 352 351 353 352 351 348 351 350 347 353 352 353 353 350 346 349 351 352 353 350 350 351 350 350 352 352 351 348 340 341 345 346 344 344 348 336 345 349 349 343 348 348
350 350 350 351 354 355 353 352 352 352 353 352 352 352 351 347 349 350 350 348 349 353 348 348 352 351 351 350 348 345 344 347 351 342 343 348 343 347 344 336 335 345 344
350 351 350 349 351 351 352 354 353 352 354 354 353 353 353 352 352 352 347 345 350 353 348 350 352 351 351 351 347 345 340 343 349 342 345 343 335 344 350 346 339 334 338
349 352 351 350 349 349 349 351 351 354 355 354 353 354 353 351 352 352 349 348 349 348 352 352 352 349 350 349 345 342 340 350 344 341 346 330 333 346 351 348 341 337 335
349 351 352 351 349 348 348 352 351 350 350 352 353 353 351 350 350 351 350 349 344 343 349 352 352 349 344 347 347 340 346 350 343 342 346 340 335 338 349 344 338 336 334
349 350 351 352 351 349 349 352 351 352 351 351 346 351 349 351 351 349 351 350 349 350 348 348 350 345 343 346 343 341 344 344 345 346 347 343 344 343 335 340 338 337 334
350 350 350 352 354 350 353 353 351 349 351 351 351 350 351 353 353 350 348 350 350 350 350 350 344 343 341 346 343 342 346 344 344 346 350 346 344 343 345 338 338 342 340
351 350 350 352 355 354 353 353 350 350 348 354 351 352 350 352 349 350 350 349 345 352 346 346 345 345 345 345 344 345 345 344 345 344 351 349 348 346 344 345 339 340 341
352 351 351 353 354 354 353 354 350 349 347 349 352 352 350 351 350 351 351 350 347 350 343 344 347 348 347 343 344 345 345 345 344 347 349 348 350 345 344 344 340 340 342
353 353 353 353 354 355 355 354 351 349 347 344 350 352 353 349 349 350 350 350 350 346 348 344 349 351 348 343 342 343 346 346 345 348 349 350 352 345 343 344 341 339 340
353 354 354 354 354 356 355 353 351 348 346 345 344 351 353 351 351 349 348 348 349 348 344 349 350 347 346 343 341 342 345 346 347 348 349 349 349 351 349 344 343 342 342
356 356 355 355 355 356 355 354 351 348 349 345 345 345 350 350 348 348 347 348 346 349 346 343 345 346 345 342 342 342 344 345 345 345 347 348 348 347 350 353 347 347 345
357 358 358 356 355 355 354 354 351 349 349 348 345 345 351 352 351 347 346 347 346 344 344 343 342 343 344 343 342 342 343 344 343 343 345 345 346 349 349 349 350 351 350
357 357 359 357 356 354 354 353 350 348 348 348 347 347 349 351 350 350 346 348 349 346 343 345 345 344 343 342 343 343 344 344 344 343 343 344 346 348 348 348 349 347 347
357 359 358 357 357 355 354 352 349 348 347 347 347 348 350 350 350 350 350 348 351 348 348 350 346 344 344 343 342 342 344 343 342 343 343 343 345 346 345 346 348 348 348
353 359 359 358 358 356 353 352 352 351 349 349 348 349 350 351 351 350 351 349 350 351 349 350 347 346 346 343 341 341 342 342 342 343 344 344 344 345 346 345 348 348 352
352 355 358 357 358 357 356 354 353 352 352 351 350 349 350 351 352 352 351 351 349 352 352 351 350 348 350 349 346 344 343 348 349 348 345 349 349 351 351 351 350 349 351
353 357 360 359 358 357 355 355 354 354 352 352 351 350 349 351 352 351 352 351 352 351 351 353 352 353 353 351 350 350 351 349 351 348 350 349 346 349 350 352 350 349 349
350 353 358 358 359 357 355 355 354 356 355 353 354 352 351 350 352 351 351 352 353 353 353 354 354 353 353 353 353 351 352 353 351 351 352 350 349 347 347 346 348 348 347
Wind_Speed
28 25 20 16 19 20 18 19 18 20 22 25 26 27 26 24 24 24 24 24 21 18 15 16 15 16 17 17 16 16 17 16 17 18 17 18 17 18 14 18 19 16 16
31 26 22 20 23 22 20 19 20 20 23 25 27 27 27 22 22 22 22 20 17 15 14 14 14 14 15 15 15 14 15 15 16 18 18 17 16 15 13 18 19 16 17
28 26 23 22 25 23 20 21 21 21 23 23 25 25 25 21 22 24 19 17 16 14 13 12 11 12 13 13 13 13 14 13 15 17 20 15 14 14 14 16 17 16 16
28 26 23 23 24 24 22 21 22 22 23 22 23 24 24 20 21 21 17 15 13 12 12 11 9 11 10 11 12 13 11 12 13 12 9 12 12 12 14 15 15 15 15
26 25 23 24 24 25 22 22 22 22 23 22 20 22 23 20 19 18 14 13 11 11 9 9 8 9 10 11 13 12 11 12 8 4 12 13 12 12 14 14 14 14 13
27 25 24 24 25 26 23 21 21 23 23 23 20 20 20 18 18 15 13 12 11 10 9 8 8 8 10 11 10 9 10 10 4 9 6 12 14 14 12 12 12 12 11
25 25 24 24 25 26 23 21 20 22 21 23 21 18 18 16 15 13 11 11 10 9 8 7 7 8 7 10 9 8 11 4 2 11 8 13 12 12 9 9 9 9 11
26 23 23 23 23 23 23 21 19 20 19 19 18 17 17 17 15 12 11 9 8 7 7 8 7 7 7 9 9 9 9 5 0 7 7 13 11 11 10 9 8 7 8
24 24 23 21 19 20 19 19 19 18 18 18 18 17 16 17 15 13 12 10 8 8 7 7 8 8 8 9 10 8 6 5 2 8 8 8 10 8 7 7 8 8 8
21 23 22 22 20 18 17 18 19 18 17 17 17 15 14 13 13 13 13 11 10 8 8 10 9 9 10 9 7 5 5 7 6 8 9 11 7 9 7 5 5 7 6
22 24 23 22 21 19 17 17 17 17 16 16 15 15 14 12 11 12 11 12 11 10 10 11 10 9 11 8 6 6 9 10 6 7 14 6 5 7 8 5 4 5 6
26 24 24 23 22 21 19 19 17 16 16 15 14 15 14 15 15 12 11 13 12 11 11 11 10 10 10 9 6 8 9 11 4 4 12 6 5 7 7 6 5 5 6
26 25 24 24 23 22 21 19 17 15 15 17 18 15 15 11 10 13 12 11 12 13 11 11 9 9 12 15 12 8 7 6 4 4 9 3 2 5 7 7 6 6 7
26 26 25 23 25 25 20 20 20 19 16 18 17 18 17 12 14 15 15 15 15 13 15 14 12 11 13 11 6 8 6 8 5 5 6 3 3 5 7 8 8 7 7
27 27 26 25 23 24 19 19 18 17 17 23 19 17 18 15 16 14 14 14 15 14 17 16 11 15 14 9 8 7 9 8 5 7 6 1 4 7 8 9 9 9 9
27 28 27 27 25 23 22 16 19 17 15 15 20 17 18 15 12 13 13 13 12 13 19 19 11 12 12 12 14 11 11 9 10 7 10 7 10 5 9 9 9 9 9
26 26 28 27 27 27 24 19 19 16 16 18 17 20 20 17 16 15 15 14 13 12 12 16 12 8 14 13 15 15 13 12 12 9 10 6 10 7 9 10 10 9 9
24 26 27 27 27 28 27 24 21 19 18 18 18 19 19 19 16 17 17 14 16 14 13 15 13 14 15 15 14 15 14 14 14 12 11 10 9 9 9 14 9 9 10
21 24 26 27 27 29 26 25 22 20 19 19 19 18 23 21 23 18 19 20 16 15 17 16 15 17 16 14 14 15 14 14 14 15 13 12 12 9 10 11 10 8 11
19 23 25 26 26 29 26 25 24 21 21 20 19 20 19 20 23 22 20 14 18 17 17 17 16 16 15 15 15 16 16 16 15 15 15 15 13 13 13 11 11 12 16
20 22 24 25 26 27 27 28 25 26 24 23 22 20 20 19 23 22 21 20 18 19 19 16 14 15 16 15 14 15 14 15 16 17 17 16 16 18 19 12 14 17 16
20 24 27 27 26 28 29 27 27 26 25 25 24 22 21 22 23 25 25 21 22 25 19 14 19 17 18 17 16 14 8 15 19 20 19 18 18 18 14 17 19 16 17
15 25 29 28 28 30 30 27 26 23 23 25 26 25 27 25 25 25 25 24 21 22 23 22 22 23 21 20 21 14 6 8 10 19 21 19 19 16 17 18 18 17 17
2 17 27 30 29 30 32 29 30 28 27 28 28 28 28 31 29 28 28 27 25 22 24 24 25 30 26 15 15 21 21 9 3 4 5 7 17 10 16 18 17 16 16
5 12 19 23 28 31 32 34 29 30 29 27 27 27 29 29 32 32 31 30 28 27 23 23 25 26 24 22 19 15 13 15 11 10 6 11 14 12 16 13 15 15 15
8 5 10 17 20 24 29 32 35 28 31 27 28 27 28 30 31 34 33 33 32 30 28 26 26 24 24 22 21 20 17 14 16 16 11 14 15 19 19 18 17 12 15
Wind_Direction
149 155 154 154 156 157 143 138 138 136 134 132 130 130 130 129 125 128 126 123 118 111 104 98 97 99 102 100 102 103 103 104 107 105 106 106 107 106 102 103 107 103 105
144 153 153 154 160 159 147 141 139 135 135 132 131 130 131 136 133 131 130 123 116 112 109 104 101 102 104 105 109 107 109 110 109 113 112 109 110 100 94 105 106 108 106
141 148 150 152 159 158 151 144 141 136 136 132 133 132 134 139 137 140 132 126 119 116 115 114 110 106 102 106 107 114 115 115 117 126 119 107 114 108 104 109 110 111 111
144 148 149 152 157 162 155 147 143 139 140 137 139 140 140 138 137 141 133 132 126 120 122 118 116 109 106 113 114 115 121 125 132 138 164 111 115 111 112 109 110 112 112
146 150 153 153 156 161 158 151 147 145 147 143 145 147 148 144 139 135 136 138 138 130 125 120 119 112 114 119 120 121 117 126 134 162 128 119 115 122 119 115 110 107 119
152 147 159 157 158 160 161 156 153 152 152 154 151 154 150 147 143 142 146 140 137 133 133 127 122 120 124 125 124 129 133 136 153 120 99 92 117 125 119 124 125 128 122
151 142 155 159 160 162 163 161 158 157 156 157 160 158 155 148 149 152 148 148 142 142 142 134 146 136 140 140 140 146 141 134 160 128 148 114 121 125 125 125 124 120 120
144 146 155 161 162 164 164 162 164 164 158 159 161 164 167 166 167 168 166 159 157 155 155 162 159 149 156 146 150 140 143 142 38 118 125 117 136 138 138 134 127 129 128
146 150 156 159 161 162 165 165 166 166 166 164 163 168 173 177 180 179 182 186 177 179 171 171 157 150 157 148 148 144 161 200 211 128 151 123 135 130 141 142 145 148 141
155 154 161 163 164 167 170 169 166 167 170 172 172 175 180 187 189 192 199 198 192 192 182 167 162 152 161 161 161 173 163 169 241 126 121 125 144 150 156 161 154 155 158
167 160 165 166 167 171 171 178 175 172 173 179 179 180 181 186 194 194 194 205 193 189 178 174 167 172 173 179 189 189 205 237 194 169 126 111 163 167 189 183 186 180 180
172 170 169 171 172 173 177 173 181 184 185 189 185 185 187 192 181 190 194 201 195 191 181 175 174 185 186 185 201 219 236 264 153 156 120 103 163 180 185 209 209 203 192
177 176 177 176 176 180 179 174 185 190 193 197 194 197 199 184 146 181 182 187 189 188 187 181 190 194 208 216 175 204 237 195 186 168 127 119 197 203 205 215 218 213 207
182 184 180 184 173 181 181 178 190 193 190 197 202 203 201 195 179 187 188 186 190 191 194 194 194 202 212 245 201 209 213 222 232 186 166 185 261 239 224 218 222 222 219
185 188 183 183 180 187 204 177 204 213 188 190 193 206 204 200 190 184 196 206 194 186 191 205 211 193 203 214 239 230 232 228 264 261 151 213 282 260 237 228 226 231 236
186 188 187 185 186 192 198 191 196 202 194 199 184 202 207 213 188 194 200 208 203 197 195 195 208 187 200 205 224 221 231 233 217 246 264 291 255 251 231 227 229 234 243
187 191 190 192 191 190 201 201 199 200 214 203 193 190 192 202 207 203 204 212 214 208 196 199 206 205 204 207 218 214 230 232 240 227 254 283 248 261 226 225 230 233 239
189 194 194 192 194 194 196 196 201 209 205 208 208 189 186 202 206 199 200 202 207 195 209 206 201 209 217 213 216 219 217 237 225 240 257 259 270 260 238 218 220 236 246
197 193 197 195 194 198 196 198 203 207 207 214 211 208 188 198 207 207 216 206 192 202 201 216 211 216 209 221 216 218 226 233 233 238 238 247 261 267 248 227 234 248 263
202 198 200 200 196 197 202 201 202 206 209 214 213 212 194 194 202 208 215 218 194 217 216 209 215 216 229 216 235 217 220 228 235 242 244 239 245 246 246 244 243 262 261
203 203 197 202 195 196 203 204 206 207 206 213 215 212 200 201 203 206 216 212 203 215 220 207 210 225 220 231 229 245 237 231 241 242 239 239 237 238 246 240 248 264 275
212 198 191 202 200 195 207 208 211 211 211 213 213 210 210 208 208 207 213 213 206 220 222 212 206 218 224 221 224 234 230 232 235 233 236 249 248 249 254 248 243 238 251
243 204 185 200 206 199 207 211 213 220 219 209 214 208 211 212 210 213 213 220 215 211 217 217 213 214 232 214 214 236 219 242 243 212 213 231 245 244 254 258 251 237 231
29 197 187 196 206 211 208 212 209 211 210 217 215 212 208 205 209 212 215 216 226 215 212 213 211 213 230 233 210 218 252 316 276 253 265 279 252 241 258 256 258 257 247
22 176 194 205 211 215 216 220 216 218 220 219 220 218 209 208 209 212 213 216 216 222 223 216 212 211 217 227 225 219 231 237 240 256 267 267 262 246 251 227 245 245 242
15 339 192 215 226 226 223 226 229 223 223 223 216 217 216 217 210 216 215 212 216 217 222 220 221 218 217 217 221 221 218 204 213 219 239 261 281 275 265 254 225 241 265